Regional Weather Roundup
Issued by NWS Cleveland, OH

Home | Current Version | Previous Version | Graphics & Text | Print | Product List | Glossary On
Versions: 1 2 3 4 5 6 7 8 9 10 11 12 13 14 15 16 17 18 19 20 21 22 23 24 25 26 27 28 29 30 31 32 33 34 35 36 37 38 39 40 41 42 43 44 45 46 47 48 49 50
891
ASUS41 KCLE 172202
RWRCLE
OHIO REGIONAL WEATHER ROUNDUP
NATIONAL WEATHER SERVICE CLEVELAND, OH
600 PM EDT THU AUG 17 2017

NOTE: "FAIR" INDICATES FEW OR NO CLOUDS BELOW 12,000 FEET WITH NO
SIGNIFICANT WEATHER AND/OR OBSTRUCTIONS TO VISIBILITY.

OHZ001>008-015>018-024>027-034-035-043-044-172300-
   NORTHWEST OHIO

CITY           SKY/WX    TMP DP  RH WIND       PRES   REMARKS
DEFIANCE       MOSUNNY   84  67  56 SW14G20   29.77R
FINDLAY        CLOUDY    84  71  65 SW14      29.78F
TOLEDO EXPRESS MOSUNNY   83  72  69 SW15G23   29.75S
TOLEDO EXEC    SUNNY     85  73  67 SW15      29.76F HX  91
LIMA           CLOUDY    82  74  76 SW9       29.81S
$$

OHZ009>014-019>023-028>033-038-089-172300-
   NORTHEAST OHIO

CITY           SKY/WX    TMP DP  RH WIND       PRES   REMARKS
CLE-HOPKINS    CLOUDY    81  72  74 S10       29.82S
CLE-LAKEFRONT  CLOUDY    82  74  76 SW10G20   29.79S
CUY CO. ARPT   NOT AVBL
LORAIN-ELYRIA  CLOUDY    79  71  76 SW7       29.81F
ASHTABULA      PTSUNNY   77  75  93 S7        29.83F
AKRON-CANTON   CLOUDY    87  71  58 SW17G25   29.84F HX  93
WOOSTER        LGT RAIN  78  74  87 SW8G21    29.85S FOG
MANSFIELD      CLOUDY    79  72  79 S20       29.85S
YOUNGSTOWN     CLOUDY    82  70  66 S7        29.84F THUNDER
$$

OHZ042-051>053-060>062-070>072-077>081-172300-
  SOUTHWEST OHIO

CITY           SKY/WX    TMP DP  RH WIND       PRES   REMARKS
CINC-COVINGTON CLOUDY    80  76  87 S12       29.87S
CINC-LUNKEN    CLOUDY    80  75  84 S7        29.86F
HAMILTON       PTSUNNY   83  77  82 VRB3      29.86F HX  92
DAYTON         CLOUDY    80  74  81 S12       29.86S
WRIGHT-PAT AFB PTSUNNY   80  77  90 S12       29.85S
DAYTON GENERAL CLOUDY    77  73  87 SW12      29.86F
WILMINGTON     CLOUDY    73  73 100 S9        29.87F
$$

OHZ036-037-039>041-045>050-054>059-063>069-073>076-082>088-172300-
  CENTRAL AND SOUTHEAST OHIO

CITY           SKY/WX    TMP DP  RH WIND       PRES   REMARKS
COLUMBUS       LGT RAIN  76  74  93 S9        29.86F
OSU AIRPORT    LGT RAIN  75  75 100 S10       29.85F
BOLTON FIELD   MOSUNNY   73  72  94 SW12G20   29.87F
RICKENBACK AFB CLOUDY    72  72  99 SW9       29.86F
NEWARK         LGT RAIN  77  74  90 SW9       29.86S
MARION         CLOUDY    79  72  79 SW13      29.84S
LANCASTER      NOT AVBL
ZANESVILLE     CLOUDY    84  75  74 S7        29.85F HX  92
NEW PHILLY     NOT AVBL
$$




USA.gov is the U.S. government's official web portal to all federal, state and local government web resources and services.